TimeEDT,TemperatureF,Dew PointF,Humidity,Sea Level PressureIn,VisibilityMPH,Wind Direction,Wind SpeedMPH,Gust SpeedMPH,PrecipitationIn,Events,Conditions,WindDirDegrees,DateUTC
12:51 AM,48.2,44.6,87,30.18,10.0,NW,3.5,-,N/A,,Mostly Cloudy,310,2011-10-25 04:51:00
1:51 AM,46.9,44.1,90,30.19,10.0,Calm,Calm,-,N/A,,Mostly Cloudy,0,2011-10-25 05:51:00
2:51 AM,46.0,44.1,93,30.20,8.0,Calm,Calm,-,N/A,,Mostly Cloudy,0,2011-10-25 06:51:00
3:07 AM,44.6,44.6,100,30.19,7.0,Calm,Calm,-,N/A,,Scattered Clouds,0,2011-10-25 07:07:00
3:51 AM,41.0,39.9,96,30.22,4.0,Calm,Calm,-,N/A,,Clear,0,2011-10-25 07:51:00
4:51 AM,39.9,39.0,97,30.24,5.0,Calm,Calm,-,N/A,,Clear,0,2011-10-25 08:51:00
5:51 AM,37.0,36.0,96,30.25,3.0,Calm,Calm,-,N/A,,Clear,0,2011-10-25 09:51:00
6:05 AM,35.6,35.6,100,30.23,1.5,Calm,Calm,-,N/A,,Clear,0,2011-10-25 10:05:00
6:17 AM,37.4,35.6,93,30.23,3.0,Calm,Calm,-,N/A,,Clear,0,2011-10-25 10:17:00
6:37 AM,35.6,35.6,100,30.24,2.5,Calm,Calm,-,N/A,,Clear,0,2011-10-25 10:37:00
6:51 AM,34.0,33.1,96,30.29,2.5,Calm,Calm,-,N/A,,Clear,0,2011-10-25 10:51:00
7:00 AM,35.6,33.8,93,30.24,4.0,Calm,Calm,-,N/A,,Clear,0,2011-10-25 11:00:00
7:37 AM,35.6,33.8,93,30.26,2.0,Calm,Calm,-,N/A,,Clear,0,2011-10-25 11:37:00
7:51 AM,34.0,34.0,100,30.31,1.8,Calm,Calm,-,N/A,,Clear,0,2011-10-25 11:51:00
7:57 AM,35.6,33.8,93,30.27,0.5,Calm,Calm,-,N/A,Fog,Fog,0,2011-10-25 11:57:00
8:13 AM,35.6,33.8,93,30.27,1.5,Calm,Calm,-,N/A,,Clear,0,2011-10-25 12:13:00
8:28 AM,35.6,35.6,100,30.27,0.5,Calm,Calm,-,N/A,Fog,Fog,0,2011-10-25 12:28:00
8:35 AM,37.4,37.4,100,30.28,0.2,Calm,Calm,-,N/A,Fog,Fog,0,2011-10-25 12:35:00
8:42 AM,37.4,37.4,100,30.28,1.0,Calm,Calm,-,N/A,,Clear,0,2011-10-25 12:42:00
8:51 AM,39.9,39.0,97,30.31,2.5,Calm,Calm,-,N/A,,Clear,0,2011-10-25 12:51:00
9:00 AM,41.0,39.2,93,30.28,4.0,Calm,Calm,-,N/A,,Clear,0,2011-10-25 13:00:00
9:51 AM,48.0,43.0,83,30.30,10.0,Calm,Calm,-,N/A,,Clear,0,2011-10-25 13:51:00
10:50 AM,57.2,37.4,48,30.06,10.0,SSW,11.5,18.4,N/A,,Clear,200,2011-10-25 14:50:00
10:51 AM,53.1,37.9,57,30.28,10.0,Calm,Calm,-,N/A,,Clear,0,2011-10-25 14:51:00
11:51 AM,57.0,35.1,44,30.28,10.0,Calm,Calm,-,N/A,,Clear,0,2011-10-25 15:51:00
12:51 PM,57.9,36.0,44,30.26,10.0,Variable,3.5,-,N/A,,Clear,0,2011-10-25 16:51:00
1:51 PM,60.1,33.1,36,30.23,8.0,Calm,Calm,-,N/A,,Clear,0,2011-10-25 17:51:00
2:51 PM,63.0,33.1,33,30.19,10.0,North,3.5,-,N/A,,Clear,350,2011-10-25 18:51:00
3:51 PM,66.0,32.0,28,30.17,10.0,West,3.5,-,N/A,,Clear,260,2011-10-25 19:51:00
4:51 PM,66.9,28.9,24,30.16,10.0,Calm,Calm,-,N/A,,Clear,0,2011-10-25 20:51:00
5:51 PM,64.9,28.0,25,30.15,10.0,Calm,Calm,-,N/A,,Clear,0,2011-10-25 21:51:00
6:51 PM,48.9,37.0,64,30.17,10.0,Calm,Calm,-,N/A,,Clear,0,2011-10-25 22:51:00
7:51 PM,46.0,37.0,71,30.17,10.0,Calm,Calm,-,N/A,,Clear,0,2011-10-25 23:51:00
8:51 PM,43.0,36.0,76,30.14,10.0,Calm,Calm,-,N/A,,Clear,0,2011-10-26 00:51:00
9:51 PM,41.0,36.0,82,30.14,10.0,Calm,Calm,-,N/A,,Clear,0,2011-10-26 01:51:00
10:51 PM,39.0,35.1,86,30.12,10.0,Calm,Calm,-,N/A,,Clear,0,2011-10-26 02:51:00
11:51 PM,39.0,36.0,89,30.11,10.0,Calm,Calm,-,N/A,,Clear,0,2011-10-26 03:51:00